Regional Weather Roundup
Issued by NWS

Home | Current Version | Previous Version | Graphics & Text | Print | Product List | Glossary On
Versions: 1 2 3 4 5 6 7 8 9 10 11 12 13 14 15 16 17 18 19 20 21 22 23 24 25 26 27 28 29 30 31 32 33 34 35 36 37 38 39 40 41 42 43 44 45 46 47 48 49 50
000
ASUS45 KBOU 270107
RWRCO

WEATHER ROUNDUP FOR COLORADO
NATIONAL WEATHER SERVICE DENVER/BOULDER CO
700 PM MDT THU MAR 26 2015

NOTE: "FAIR" INDICATES FEW OR NO CLOUDS BELOW 12000 FEET WITH NO
SIGNIFICANT WEATHER AND/OR OBSTRUCTIONS TO VISIBILITY.

COZ001>005-013-030-031-270200-
...NORTHWEST COLORADO...

CITY           SKY/WX    TMP DP  RH WIND       PRES   REMARKS
CRAIG          MOCLDY    54  24  31 W7        30.24R
HAYDEN         MOCLDY    52  23  32 W10       30.24S
MEEKER         PTCLDY    55  23  28 W6        30.26F
MOUNT WERNER   NOT AVBL
STEAMBOAT SPGS MOCLDY    46  27  47 NE8       30.26R
WALDEN         CLOUDY    37  25  60 S8G16     30.27S
$$

COZ006>008-011-270200-
...WEST CENTRAL VALLEYS...

CITY           SKY/WX    TMP DP  RH WIND       PRES   REMARKS
GRAND JUNCTION PTCLDY    59  18  20 NW8       30.22S
MONTROSE       CLEAR     57  19  22 NW8       30.27S
EAGLE          NOT AVBL
RIFLE          CLEAR     58  21  24 W15       30.22R
DELTA          CLEAR     63  19  18 W12G20    30.23S
NUCLA          CLEAR     59  16  18 W10       30.29S
$$

COZ017>023-064>068-270200-
...SOUTHWEST COLORADO...

CITY           SKY/WX    TMP DP  RH WIND       PRES   REMARKS
DURANGO        CLEAR     56  15  20 SW18G26   30.20S
CORTEZ         CLEAR     60  14  16 W13       30.24R
PAGOSA SPRINGS CLEAR     56  12  17 SW10      30.26R
TELLURIDE      NOT AVBL
WOLF CREEK PAS CLOUDY    32  14  47 SW13      30.44R WCI  22
$$

COZ009-010-012-014-032>034-037-058>063-270200-
...CENTRAL COLORADO...

CITY           SKY/WX    TMP DP  RH WIND       PRES   REMARKS
ASPEN          PTCLDY    47  23  38 N8        30.30R
BUENA VISTA    MOCLDY    50  17  26 N9        30.24R
COPPER MTN     CLOUDY    32  19  59 W20G35    30.39R WCI  20
BERTHOUD PASS  CLOUDY    19  14  79 NW33G44   30.35S HAZE    WCI   0
COTTONWOOD PAS MOCLDY    45  16  31 CALM      30.31R
GUNNISON       CLEAR     48  18  29 SW16G23   30.31R
KREMMLING      CLOUDY    46  23  39 CALM      30.30R
LEADVILLE      MOCLDY    35  19  52 NW14G20   30.31R WCI  26
SALIDA         MOCLDY    56  17  21 N10       30.29R
SUNLIGHT       PTCLDY    37  21  52 W3        30.43R
WILKERSON PASS MOCLDY    32  18  55 NW15G28   30.35S WCI  22
$$

COZ069>075-270200-
...SAN LUIS VALLEY/SANGRE DE CRISTO MOUNTAINS...

CITY           SKY/WX    TMP DP  RH WIND       PRES   REMARKS
ALAMOSA        MOCLDY    55  13  18 N10       30.20R
LA VETA PASS   MOCLDY    39  14  35 W3        30.29S
SAGUACHE       MOCLDY    52  18  25 N16G22    30.24R
$$

COZ035-036-038>040-270200-
...NORTHERN COLORADO FRONT RANGE...

CITY           SKY/WX    TMP DP  RH WIND       PRES   REMARKS
DENVER INTL AP MOCLDY    56  26  31 CALM      30.14R
DMNS CITY PARK   N/A     57  22  25 W13G18    30.14R
AURORA         NOT AVBL
FRONT RANGE AP MOCLDY    55  32  41 MISG        N/A
ERIE MUNI ARPT CLOUDY    57  24  28 NW9       30.13S
BOULDER MUN AP CLOUDY    55  23  28 W12G17    30.13S
CENTENNIAL     MOCLDY    55  23  28 NW16G25   30.15R
BROOMFIELD     MOCLDY    55  25  30 W17       30.14S
FORT COLLINS   CLOUDY    57  27  30 NW12      30.13S
LONGMONT       CLOUDY    58  27  30 W5        30.15R
$$

COZ041-046-047-076>085-087-088-270200-
...PIKES PEAK/PALMER DIVIDE AND SOUTHERN FOOTHILLS...

CITY           SKY/WX    TMP DP  RH WIND       PRES   REMARKS
COLO. SPRINGS  MOCLDY    52  21  29 SW6       30.19R
A. F. ACADEMY  NOT AVBL
ELLICOTT       CLOUDY   N/A N/A N/A S5        30.17R
FALCON         MOCLDY    50  19  29 N3        30.21R
FORT CARSON    NOT AVBL
LIMON          PTCLDY    49  25  39 N12       30.15R
MONUMENT HILL  MOCLDY    43  27  52 NE5       30.19S
TRINIDAD       MOCLDY    53  23  31 E8        30.15R
$$

COZ042>045-048>051-090-091-270200-
...NORTHEAST COLORADO...

CITY           SKY/WX    TMP DP  RH WIND       PRES   REMARKS
GREELEY ARPT   CLOUDY    59  27  29 N15       30.10R
AKRON          CLOUDY    49  28  44 N7        30.12R
BURLINGTON     CLOUDY    53  26  35 NE10      30.13R
WRAY           CLOUDY    54  30  40 N14G20    30.12R
STERLING       CLOUDY    52  30  43 NE10      30.09S
HOLYOKE        PTCLDY    54  32  43 N13       30.11S
FORT MORGAN    CLOUDY    51  24  35 NE10      30.13R
$$

COZ086-089-092>099-270200-
...SOUTHEAST COLORADO...

CITY           SKY/WX    TMP DP  RH WIND       PRES   REMARKS
PUEBLO         MOCLDY    58  21  24 CALM      30.13R
LA JUNTA       PTCLDY    59  20  22 SE3       30.12R
LAMAR          MOCLDY    57  26  30 NE9       30.10R
SPRINGFIELD      N/A     51  24  34 NW7       30.13S
$$



USA.gov is the U.S. government's official web portal to all federal, state and local government web resources and services.